Rome, GA

6:12 PM EST on November 22, 2019 (GMT -0500)
Russell

Weather History for KRMG - September, 2019

Change the Weather History Date:

Saturday, September 21, 2019

  Actual Average Record
Temperature  
Mean Temperature 73 °F 70 °F  
Max Temperature 91 °F 82 °F 98 °F (2010)
Min Temperature 55 °F 58 °F 46 °F (2006)
Degree Days  
Heating Degree Days 0 1  
Month to date heating degree days 0 2  
Since 1 July heating degree days 0 2  
Cooling Degree Days 8 6  
Month to date cooling degree days 322 182  
Year to date cooling degree days 2081 1548  
Growing Degree Days 23 (Base 50)    
Moisture  
Dew Point 56 °F    
Average Humidity 62    
Maximum Humidity 93    
Minimum Humidity 27    
Precipitation  
Precipitation 0.00 in 0.12 in 1.86 in (2000)
Month to date precipitation T 2.21  
Year to date precipitation 42.45 37.63  
Sea Level Pressure  
Sea Level Pressure 30.23 in    
Wind  
Wind Speed 1 mph ()    
Max Wind Speed 10 mph    
Max Gust Speed 15 mph    
Visibility 10.0 miles    
Events      
T = Trace of Precipitation, MM = Missing Value Source: Averaged Metar Reports

Daily Weather History Graph

Daily Weather History Graph

Search for Another Location

Airport or City:

Astronomy

Sep. 21, 2019 Rise Set
Actual Time 7:27 AM EDT 7:39 PM EDT
Civil Twilight 7:02 AM EDT 8:04 PM EDT
Nautical Twilight 6:33 AM EDT 8:33 PM EDT
Astronomical Twilight 6:03 AM EDT 9:03 PM EDT
Moon No Moon Rise 2:16 PM EDT (9/21)
Length of Visible Light 13h 01m
Length of Day
12h 11m
Waning Gibbous, 55% of the Moon is Illuminated
Sep 21
Waning Gibbous
Sep 21
Last Quarter
Sep 28
New
Oct 5
First Quarter
Oct 13
Full

Hourly Weather History & Observations

Time (EDT) Temp. Heat Index Dew Point Humidity Pressure Visibility Wind Dir Wind Speed Gust Speed Precip Events Conditions
12:53 AM 62.1 °F - 55.9 °F 80% 30.25 in 10.0 mi Calm Calm - N/A   Clear
1:53 AM 61.0 °F - 55.9 °F 83% 30.25 in 10.0 mi Calm Calm - N/A   Clear
2:53 AM 59.0 °F - 55.0 °F 87% 30.25 in 10.0 mi Calm Calm - N/A   Clear
3:53 AM 57.0 °F - 54.0 °F 89% 30.25 in 10.0 mi Calm Calm - N/A   Clear
4:53 AM 57.0 °F - 54.0 °F 89% 30.25 in 10.0 mi Calm Calm - N/A   Clear
5:53 AM 55.9 °F - 53.1 °F 90% 30.26 in 10.0 mi Calm Calm - N/A   Clear
6:53 AM 55.9 °F - 53.1 °F 90% 30.29 in 10.0 mi Calm Calm - N/A   Clear
7:53 AM 57.0 °F - 54.0 °F 89% 30.31 in 10.0 mi Calm Calm - N/A   Clear
8:53 AM 64.0 °F - 57.0 °F 78% 30.31 in 10.0 mi Calm Calm - N/A   Clear
10:53 AM 77.0 °F - 61.0 °F 58% 30.31 in 10.0 mi Calm Calm - N/A   Clear
11:53 AM 81.0 °F 81.9 °F 62.1 °F 52% 30.28 in 10.0 mi SSW 3.5 mph - N/A   Clear
12:53 PM 82.9 °F 82.8 °F 59.0 °F 44% 30.27 in 10.0 mi Calm Calm - N/A   Partly Cloudy
1:53 PM 84.9 °F 83.9 °F 57.0 °F 38% 30.24 in 10.0 mi Calm Calm - N/A   Partly Cloudy
2:53 PM 89.1 °F 87.1 °F 55.0 °F 31% 30.21 in 10.0 mi SE 9.2 mph - N/A   Clear
3:53 PM 89.1 °F 86.7 °F 53.1 °F 29% 30.18 in 10.0 mi Variable 3.5 mph - N/A   Clear
4:53 PM 90.0 °F - 52.0 °F 27% 30.15 in 10.0 mi Variable 6.9 mph - N/A   Clear
5:53 PM 89.1 °F - 52.0 °F 28% 30.14 in 10.0 mi South 6.9 mph - N/A   Clear
6:53 PM 86.0 °F - 52.0 °F 31% 30.15 in 10.0 mi SE 5.8 mph - N/A   Clear
7:53 PM 79.0 °F - 55.0 °F 44% 30.16 in 10.0 mi Calm Calm - N/A   Clear
8:53 PM 73.0 °F - 55.9 °F 55% 30.17 in 10.0 mi Calm Calm - N/A   Clear
9:53 PM 70.0 °F - 57.0 °F 63% 30.19 in 10.0 mi Calm Calm - N/A   Clear
10:53 PM 68.0 °F - 57.0 °F 68% 30.19 in 10.0 mi Calm Calm - N/A   Clear
11:53 PM 64.9 °F - 57.0 °F 75% 30.19 in 10.0 mi Calm Calm - N/A   Clear